Aktion, Greece

9:20 AM EEST on August 26, 2016 (GMT +0300)
Aktion Air Base

Weather History for LGPZ - November, 2012

Change the Weather History Date:

Saturday, November 17, 2012

  Actual Average Record
Temperature  
Mean Temperature 64 °F -  
Max Temperature 70 °F 58 °F 73 °F (2015)
Min Temperature 59 °F 48 °F 46 °F (2011)
Growing Degree Days 14 (Base 50)    
Moisture  
Dew Point 48 °F    
Average Humidity 55    
Maximum Humidity 72    
Minimum Humidity 33    
Precipitation  
Precipitation 0.00 in - - ()
Sea Level Pressure  
Sea Level Pressure 30.01 in    
Wind  
Wind Speed 9 mph ()    
Max Wind Speed 15 mph    
Max Gust Speed -    
Visibility 6.2 miles    
Events      
Averages and records for this station are not official NWS values.
T = Trace of Precipitation, MM = Missing Value Source: Averaged Metar Reports

Daily Weather History Graph

Daily Weather History Graph

Search for Another Location

Airport or City:

Trip Planner

Search our weather history database for the weather conditions in past years. The results will help you decide how hot, cold, wet, or windy it might be!

Date:

Astronomy

Nov. 17, 2012 Rise Set
Actual Time 7:22 AM EET 5:21 PM EET
Civil Twilight 6:53 AM EET 5:50 PM EET
Nautical Twilight 6:21 AM EET 6:22 PM EET
Astronomical Twilight 5:49 AM EET 6:54 PM EET
Moon 10:52 AM EET (11/17) 9:09 PM EET (11/17)
Length of Visible Light 10h 56m
Length of Day
9h 59m
Waxing Crescent, 17% of the Moon is Illuminated
Nov 17
Waxing Crescent
Nov 20
First Quarter
Nov 28
Full
Dec 6
Last Quarter
Dec 13
New

Hourly Weather History & Observations

Time (EET) Temp. Dew Point Humidity Pressure Visibility Wind Dir Wind Speed Gust Speed Precip Events Conditions
12:50 AM 60.8 °F 48.2 °F 63% 30.04 in 6.2 mi East 6.9 mph - N/A   Partly Cloudy
1:50 AM 60.8 °F 50.0 °F 68% 30.04 in 6.2 mi East 10.4 mph - N/A   Partly Cloudy
2:00 AM 62 °F 50 °F 54% 30.05 in 6 mi East 10.4 mph - -   Scattered Clouds
2:50 AM 59.0 °F 50.0 °F 72% 30.04 in 6.2 mi NE 8.1 mph - N/A   Partly Cloudy
3:50 AM 60.8 °F 50.0 °F 68% 30.01 in 6.2 mi East 9.2 mph - N/A   Partly Cloudy
4:50 AM 60.8 °F 50.0 °F 68% 30.01 in 6.2 mi East 9.2 mph - N/A   Partly Cloudy
5:20 AM 60.8 °F 50.0 °F 68% 30.01 in 6.2 mi ENE 8.1 mph - N/A   Partly Cloudy
5:50 AM 60.8 °F 50.0 °F 68% 30.01 in 6.2 mi East 9.2 mph - N/A   Partly Cloudy
6:20 AM 60.8 °F 50.0 °F 68% 30.01 in 6.2 mi East 9.2 mph - N/A   Partly Cloudy
6:50 AM 62.6 °F 50.0 °F 63% 30.01 in 6.2 mi East 9.2 mph - N/A   Partly Cloudy
7:20 AM 62.6 °F 50.0 °F 63% 30.01 in 6.2 mi ENE 8.1 mph - N/A   Partly Cloudy
7:50 AM 62.6 °F 50.0 °F 63% 30.01 in 6.2 mi East 9.2 mph - N/A   Partly Cloudy
8:00 AM 62 °F 49 °F 53% 30.02 in 6 mi East 9.2 mph - -   Scattered Clouds
8:20 AM 62.6 °F 50.0 °F 63% 30.01 in 6.2 mi East 9.2 mph - N/A   Partly Cloudy
8:50 AM 64.4 °F 50.0 °F 59% 30.04 in 6.2 mi East 10.4 mph - N/A   Partly Cloudy
9:20 AM 64.4 °F 50.0 °F 59% 30.04 in 6.2 mi ENE 10.4 mph - N/A   Partly Cloudy
9:50 AM 62.6 °F 50.0 °F 63% 30.04 in 6.2 mi ENE 10.4 mph - N/A   Partly Cloudy
10:20 AM 64.4 °F 50.0 °F 59% 30.04 in 6.2 mi ENE 9.2 mph - N/A   Partly Cloudy
10:50 AM 66.2 °F 50.0 °F 56% 30.04 in 6.2 mi ENE 10.4 mph - N/A   Scattered Clouds
11:20 AM 66.2 °F 50.0 °F 56% 30.04 in 6.2 mi ENE 9.2 mph - N/A   Scattered Clouds
11:50 AM 68.0 °F 50.0 °F 52% 30.01 in 6.2 mi ENE 8.1 mph - N/A   Scattered Clouds
12:20 PM 69.8 °F 48.2 °F 46% 30.01 in 6.2 mi ENE 8.1 mph - N/A   Scattered Clouds
12:50 PM 69.8 °F 48.2 °F 46% 30.01 in 6.2 mi ENE 8.1 mph - N/A   Scattered Clouds
1:20 PM 69.8 °F 50.0 °F 49% 29.98 in 6.2 mi ENE 8.1 mph - N/A   Partly Cloudy
1:50 PM 69.8 °F 48.2 °F 46% 29.98 in 6.2 mi ENE 9.2 mph - N/A   Partly Cloudy
2:00 PM 70 °F 47 °F 33% 29.99 in 6 mi ENE 9.2 mph - -   Scattered Clouds
2:20 PM 69.8 °F 48.2 °F 46% 29.98 in 6.2 mi East 9.2 mph - N/A   Partly Cloudy
2:50 PM 69.8 °F 48.2 °F 46% 29.98 in 6.2 mi East 8.1 mph - N/A   Partly Cloudy
3:20 PM 69.8 °F 50.0 °F 49% 29.98 in 6.2 mi ENE 6.9 mph - N/A   Partly Cloudy
3:50 PM 69.8 °F 48.2 °F 46% 29.98 in 6.2 mi ESE 9.2 mph - N/A   Partly Cloudy
4:20 PM 68.0 °F 48.2 °F 49% 29.98 in 6.2 mi ESE 11.5 mph - N/A   Partly Cloudy
4:50 PM 66.2 °F 46.4 °F 49% 29.98 in 6.2 mi East 15.0 mph - N/A   Scattered Clouds
5:20 PM 64.4 °F 46.4 °F 52% 29.98 in 6.2 mi ESE 13.8 mph - N/A   Scattered Clouds
5:50 PM 64.4 °F 46.4 °F 52% 29.98 in 6.2 mi ESE 13.8 mph - N/A   Scattered Clouds
6:20 PM 64.4 °F 44.6 °F 49% 29.98 in 6.2 mi ESE 11.5 mph - N/A   Partly Cloudy
6:50 PM 64.4 °F 44.6 °F 49% 29.98 in 6.2 mi ESE 13.8 mph - N/A   Partly Cloudy
7:20 PM 62.6 °F 44.6 °F 52% 29.98 in 6.2 mi ESE 12.7 mph - N/A   Partly Cloudy
7:50 PM 64.4 °F 44.6 °F 49% 29.98 in 6.2 mi ESE 15.0 mph - N/A   Partly Cloudy
8:00 PM 64 °F 45 °F 39% 30.00 in 6 mi ESE 15.0 mph - -   Scattered Clouds
8:50 PM 62.6 °F 44.6 °F 52% 30.01 in 6.2 mi ESE 13.8 mph - N/A   Partly Cloudy
9:50 PM 62.6 °F 44.6 °F 52% 30.01 in 6.2 mi ESE 12.7 mph - N/A   Partly Cloudy
10:50 PM 62.6 °F 46.4 °F 55% 30.01 in 6.2 mi ESE 9.2 mph - N/A   Partly Cloudy
11:50 PM 60.8 °F 46.4 °F 59% 30.01 in 6.2 mi ESE 6.9 mph - N/A   Partly Cloudy